Weather History for KGBG - March, 2013

Change the Weather History Date:

Saturday, March 16, 2013

  Actual Average Record
Temperature  
Mean Temperature 34 °F -  
Max Temperature 38 °F 47 °F 81 °F (2012)
Min Temperature 31 °F 28 °F 9 °F (1951)
Degree Days  
Heating Degree Days 30    
Moisture  
Dew Point 31 °F    
Average Humidity 88    
Maximum Humidity 100    
Minimum Humidity 68    
Precipitation  
Precipitation 0.00 in - - ()
Sea Level Pressure  
Sea Level Pressure 29.93 in    
Wind  
Wind Speed 10 mph (North)    
Max Wind Speed 16 mph    
Max Gust Speed 22 mph    
Visibility 6 miles    
Events Fog , Rain , Snow    
Averages and records for this station are not official NWS values.
T = Trace of Precipitation, MM = Missing Value Source: NWS Daily Summary

Daily Weather History Graph

Daily Weather History Graph

Search for Another Location

Airport or City:

Trip Planner

Search our weather history database for the weather conditions in past years. The results will help you decide how hot, cold, wet, or windy it might be!

Date:

Astronomy

Mar. 16, 2013 Rise Set
Actual Time 7:11 AM CDT 7:09 PM CDT
Civil Twilight 6:43 AM CDT 7:37 PM CDT
Nautical Twilight 6:12 AM CDT 8:09 PM CDT
Astronomical Twilight 5:39 AM CDT 8:41 PM CDT
Moon 9:38 AM CDT (3/16) No Moon Set
Length of Visible Light 12h 53m
Length of Day
11h 58m
Waxing Crescent, 23% of the Moon is Illuminated
Mar 16
Waxing Crescent
Mar 19
First Quarter
Mar 27
Full
Apr 2
Last Quarter
Apr 10
New

Hourly Weather History & Observations

Time (CDT) Temp. Windchill Dew Point Humidity Pressure Visibility Wind Dir Wind Speed Gust Speed Precip Events Conditions
12:15 AM 38.8 °F 35.4 °F 37.4 °F 95% 29.68 in 5.0 mi NNE 4.6 mph - N/A   Scattered Clouds
12:35 AM 37.9 °F 32.1 °F 36.7 °F 95% 29.68 in 4.0 mi North 8.1 mph - N/A   Scattered Clouds
12:55 AM 36.9 °F 30.1 °F 36.0 °F 97% 29.69 in 3.0 mi NNE 9.2 mph - N/A   Mostly Cloudy
1:15 AM 36.7 °F 28.9 °F 35.8 °F 97% 29.69 in 3.0 mi North 11.5 mph - N/A   Overcast
1:35 AM 36.1 °F 28.7 °F 35.6 °F 98% 29.68 in 2.5 mi NNE 10.4 mph - N/A   Overcast
1:55 AM 35.6 °F 30.7 °F 35.1 °F 98% 29.69 in 2.0 mi North 5.8 mph - N/A   Overcast
2:15 AM 35.2 °F 27.6 °F 35.1 °F 99% 29.69 in 1.5 mi North 10.4 mph - N/A   Overcast
2:35 AM 34.9 °F 25.7 °F 34.7 °F 99% 29.71 in 0.8 mi North 13.8 mph - N/A   Overcast
2:55 AM 34.7 °F 25.5 °F 34.7 °F 100% 29.73 in 0.5 mi North 13.8 mph - N/A Fog Fog
3:15 AM 34.2 °F 24.0 °F 34.2 °F 100% 29.73 in 0.2 mi North 16.1 mph - N/A Fog Fog
3:35 AM 33.4 °F 23.1 °F 33.4 °F 100% 29.72 in 0.2 mi North 16.1 mph - N/A Snow Light Snow
3:55 AM 33.3 °F 22.8 °F 33.3 °F 100% 29.73 in 0.5 mi North 16.1 mph - N/A Snow Light Snow
4:15 AM 33.4 °F 24.3 °F 33.4 °F 100% 29.73 in 0.5 mi North 12.7 mph - N/A Rain Light Rain
4:35 AM 33.4 °F 24.8 °F 33.4 °F 100% 29.74 in 0.2 mi North 11.5 mph - N/A Snow Light Snow
4:55 AM 33.8 °F 24.3 °F 33.8 °F 100% 29.76 in 0.2 mi North 13.8 mph 17.3 mph N/A Snow Light Snow
5:15 AM 33.1 °F 23.9 °F 33.1 °F 100% 29.75 in 0.5 mi North 12.7 mph - N/A Snow Light Snow
5:35 AM 33.1 °F 24.4 °F 33.1 °F 100% 29.77 in 0.5 mi North 11.5 mph - N/A Snow Light Snow
5:55 AM 33.1 °F 23.4 °F 33.1 °F 100% 29.79 in 0.8 mi North 13.8 mph - N/A   Overcast
6:15 AM 32.9 °F 22.8 °F 32.9 °F 100% 29.81 in 1.0 mi North 15.0 mph - N/A   Overcast
6:35 AM 32.5 °F 25.5 °F 32.5 °F 100% 29.81 in 2.0 mi North 8.1 mph - N/A   Overcast
6:55 AM 32.5 °F 25.5 °F 32.5 °F 100% 29.82 in 2.5 mi NNW 8.1 mph - N/A   Overcast
7:15 AM 32.5 °F 24.2 °F 32.5 °F 100% 29.83 in 2.5 mi NNW 10.4 mph - N/A   Overcast
7:35 AM 32.9 °F 26.7 °F 32.9 °F 100% 29.86 in 2.0 mi NW 6.9 mph - N/A   Overcast
7:55 AM 32.9 °F 25.3 °F 32.9 °F 100% 29.87 in 1.2 mi NNW 9.2 mph - N/A   Overcast
8:15 AM 33.1 °F 26.9 °F 33.1 °F 100% 29.89 in 0.8 mi NW 6.9 mph - N/A   Overcast
8:35 AM 33.3 °F 23.2 °F 33.3 °F 100% 29.90 in 0.2 mi NW 15.0 mph 19.6 mph N/A Fog Fog
8:55 AM 33.3 °F 23.2 °F 33.3 °F 100% 29.91 in 1.2 mi NNW 15.0 mph 21.9 mph N/A   Overcast
9:15 AM 33.4 °F 24.3 °F 33.4 °F 100% 29.91 in 1.2 mi NNW 12.7 mph 18.4 mph N/A   Overcast
9:35 AM 33.6 °F 24.6 °F 33.3 °F 99% 29.92 in 3.0 mi NNW 12.7 mph - N/A   Overcast
9:55 AM 34.0 °F 25.0 °F 33.4 °F 98% 29.94 in 3.0 mi NNW 12.7 mph - N/A   Overcast
10:15 AM 34.2 °F 25.2 °F 33.4 °F 97% 29.94 in 3.0 mi NNW 12.7 mph - N/A   Overcast
10:35 AM 34.3 °F 25.0 °F 33.3 °F 96% 29.95 in 3.0 mi NNW 13.8 mph - N/A   Overcast
10:55 AM 34.7 °F 25.5 °F 34.2 °F 98% 29.96 in 4.0 mi NNW 13.8 mph - N/A   Overcast
11:15 AM 35.6 °F 27.1 °F 33.1 °F 91% 29.97 in 5.0 mi North 12.7 mph - N/A   Overcast
11:35 AM 35.8 °F 28.3 °F 32.5 °F 88% 29.98 in 5.0 mi North 10.4 mph 17.3 mph N/A   Overcast
11:55 AM 36.1 °F 27.7 °F 32.2 °F 86% 29.98 in 7.0 mi North 12.7 mph - N/A   Overcast
12:15 PM 36.7 °F 28.9 °F 32.5 °F 85% 29.99 in 7.0 mi North 11.5 mph 17.3 mph N/A   Overcast
12:35 PM 36.5 °F 28.7 °F 32.2 °F 84% 30.00 in 7.0 mi North 11.5 mph - N/A   Overcast
12:55 PM 36.1 °F 27.3 °F 32.0 °F 85% 30.00 in 7.0 mi North 13.8 mph 17.3 mph N/A   Overcast
1:15 PM 36.9 °F 29.1 °F 32.2 °F 83% 30.00 in 7.0 mi North 11.5 mph - N/A   Overcast
1:35 PM 37.6 °F 30.0 °F 32.0 °F 80% 30.01 in 10.0 mi North 11.5 mph - N/A   Overcast
1:55 PM 37.4 °F 30.3 °F 31.5 °F 79% 30.01 in 10.0 mi North 10.4 mph - N/A   Overcast
2:15 PM 37.6 °F 30.0 °F 30.6 °F 76% 30.01 in 10.0 mi North 11.5 mph - N/A   Overcast
2:35 PM 38.3 °F 31.4 °F 30.4 °F 73% 30.01 in 10.0 mi North 10.4 mph - N/A   Overcast
2:55 PM 38.1 °F 31.2 °F 30.0 °F 73% 30.01 in 10.0 mi North 10.4 mph - N/A   Overcast
3:15 PM 38.3 °F 30.9 °F 28.8 °F 69% 30.02 in 10.0 mi North 11.5 mph - N/A   Overcast
3:35 PM 38.1 °F 30.7 °F 28.2 °F 68% 30.01 in 10.0 mi North 11.5 mph - N/A   Overcast
3:55 PM 37.8 °F 31.3 °F 28.6 °F 69% 30.02 in 10.0 mi North 9.2 mph - N/A   Overcast
4:15 PM 37.4 °F 30.8 °F 28.0 °F 69% 30.03 in 10.0 mi North 9.2 mph - N/A   Overcast
4:35 PM 37.4 °F 30.8 °F 28.0 °F 69% 30.03 in 10.0 mi North 9.2 mph - N/A   Overcast
4:55 PM 36.7 °F 29.9 °F 28.2 °F 71% 30.03 in 10.0 mi North 9.2 mph - N/A   Overcast
5:15 PM 36.7 °F 30.5 °F 27.5 °F 69% 30.03 in 10.0 mi North 8.1 mph - N/A   Overcast
5:35 PM 36.1 °F 29.3 °F 27.5 °F 71% 30.03 in 10.0 mi NNE 9.2 mph - N/A   Overcast
5:55 PM 36.0 °F 30.3 °F 27.5 °F 71% 30.03 in 10.0 mi North 6.9 mph - N/A   Overcast
6:15 PM 35.8 °F 30.1 °F 27.5 °F 72% 30.03 in 10.0 mi NNE 6.9 mph - N/A   Overcast
6:35 PM 35.4 °F 29.7 °F 28.0 °F 75% 30.04 in 10.0 mi NNE 6.9 mph - N/A   Overcast
6:55 PM 34.9 °F 29.0 °F 28.0 °F 76% 30.05 in 10.0 mi NNE 6.9 mph - N/A   Overcast
7:15 PM 34.3 °F 29.2 °F 27.5 °F 76% 30.06 in 10.0 mi North 5.8 mph - N/A   Overcast
7:35 PM 33.8 °F 29.6 °F 27.5 °F 78% 30.07 in 10.0 mi North 4.6 mph - N/A   Overcast
7:55 PM 34.0 °F 29.8 °F 27.1 °F 76% 30.08 in 10.0 mi NNE 4.6 mph - N/A   Overcast
8:15 PM 33.3 °F 30.2 °F 27.0 °F 78% 30.08 in 10.0 mi NNE 3.5 mph - N/A   Overcast
8:35 PM 33.1 °F 27.7 °F 27.3 °F 79% 30.09 in 10.0 mi NNE 5.8 mph - N/A   Overcast
8:55 PM 33.4 °F 29.1 °F 27.1 °F 78% 30.09 in 10.0 mi NNE 4.6 mph - N/A   Overcast
9:15 PM 32.9 °F 28.5 °F 26.8 °F 78% 30.09 in 10.0 mi North 4.6 mph - N/A   Overcast
9:35 PM 32.9 °F 29.8 °F 28.0 °F 82% 30.09 in 10.0 mi North 3.5 mph - N/A   Overcast
9:55 PM 32.9 °F 28.5 °F 27.7 °F 81% 30.10 in 10.0 mi North 4.6 mph - N/A   Overcast
10:15 PM 32.2 °F 26.7 °F 28.4 °F 86% 30.11 in 10.0 mi North 5.8 mph - N/A   Overcast
10:35 PM 32.0 °F 26.4 °F 28.6 °F 87% 30.11 in 10.0 mi NNE 5.8 mph - N/A   Overcast
10:55 PM 32.0 °F 26.4 °F 28.2 °F 86% 30.11 in 10.0 mi NNE 5.8 mph - N/A   Overcast
11:15 PM 31.8 °F 26.2 °F 27.7 °F 85% 30.11 in 10.0 mi NE 5.8 mph - N/A   Overcast
11:35 PM 31.5 °F 25.8 °F 28.0 °F 87% 30.11 in 10.0 mi North 5.8 mph - N/A   Overcast
11:55 PM 31.3 °F 23.9 °F 28.0 °F 88% 30.11 in 10.0 mi NNE 8.1 mph - N/A   Overcast